Gravestown, Mississippi
Current Conditions -  °F | °C
As of 3:35 PM on Saturday 25 Oct 2014 (Local Time) from KCRX Reporting Station
NA  
Wind Chill: 81°   Ceiling: NA
Heat Index: 82°   Visibility: 10mi
Dew Point: 63°   Wind: 8mph
Humidity: 54%   Direction: 280°W
Pressure: 30.02"   Gusts: NA
Location:  34.7808°N, 88.8865°W
Report Text: KCRX 252035Z AUTO 28007KT 10SM 27/17 A3002 RMK AO2
Loading
Personal Weather Stations






























Interactive Weather Map
Tropical Storm Tracking
New forecast layout! Learn more

10-Day Weather Forecast

Advertisements
Track Severe Weather on mobile